Regional Weather Roundup
Issued by NWS Raleigh/Durham, NC

Home | Current Version | Previous Version | Text Only | Print | Product List | Glossary On
Versions: 1 2 3 4 5 6 7 8 9 10 11 12 13 14 15 16 17 18 19 20 21 22 23 24 25 26 27 28 29 30 31 32 33 34 35 36 37 38 39 40 41 42 43 44 45 46 47 48 49 50
629
ASUS42 KRAH 010610
RWRRAH
NORTH CAROLINA WEATHER ROUNDUP
NATIONAL WEATHER SERVICE RALEIGH NC
200 AM EDT SUN MAY 01 2016

NOTE: "FAIR" INDICATES FEW OR NO CLOUDS BELOW 12,000 FEET WITH NO
SIGNIFICANT WEATHER AND/OR OBSTRUCTIONS TO VISIBILITY.

NCZ001-053-055-056-065-067-010700-
WESTERN NORTH CAROLINA

CITY           SKY/WX    TMP DP  RH WIND       PRES   REMARKS
ASHEVILLE      RAIN      59  57  93 CALM      30.09F FOG
JEFFERSON      HVY RAIN  51  51  99 CALM      30.14R
MORGANTON      RAIN      57  57 100 N6        30.16R
HICKORY        RAIN      58  58 100 CALM      30.10R FOG
RUTHERFORDTON  DRIZZLE  N/A N/A N/A NE6       30.08F
MOUNT AIRY     RAIN      56  54  92 CALM      30.14F
BOONE          HVY RAIN  52  52 100 SE6       30.14F
$$

NCZ021-022-025-041-071-084-088-010700-
CENTRAL NORTH CAROLINA

CITY           SKY/WX    TMP DP  RH WIND       PRES   REMARKS
CHARLOTTE      CLOUDY    66  64  93 S9        30.08S
GREENSBORO     LGT RAIN  58  58 100 SE6       30.10F FOG
WINSTON-SALEM  LGT RAIN  57  56  96 NE3       30.12F FOG
RALEIGH-DURHAM CLOUDY    60  55  83 SE7       30.13S
FORT BRAGG     CLOUDY    63  57  81 SE6       30.11F
FAYETTEVILLE   CLOUDY    63  57  81 SE8       30.11F
BURLINGTON     LGT RAIN  59  57  93 CALM      30.12F
LAURINBURG     MOCLDY    64  57  78 SE9       30.11F
$$

NCZ011-015-027-028-043-044-047-080-103-010700-
NORTHEASTERN NORTH CAROLINA

CITY           SKY/WX    TMP DP  RH WIND       PRES   REMARKS
ROCKY MT-WILSO CLOUDY    57  53  86 VRB5      30.14F
GREENVILLE     CLOUDY    57  54  88 E5        30.16S
WASHINGTON     PTCLDY    55  53  92 E3        30.14F
ELIZABETH CITY CLOUDY    56  52  86 E9        30.16F
MANTEO         NOT AVBL
CAPE HATTERAS  MOCLDY    59  55  87 NE8       30.13F
$$

NCZ078-087-090-091-093-098-101-010700-
SOUTHEASTERN NORTH CAROLINA

CITY           SKY/WX    TMP DP  RH WIND       PRES   REMARKS
LUMBERTON      CLOUDY    64  58  80 SE6       30.10F
GOLDSBORO      CLOUDY    61  61 100 E10       30.11F
KINSTON        CLOUDY    60  56  87 E5        30.14F
KENANSVILLE    MOCLDY    60  56  87 CALM      30.14F
NEW BERN       CLOUDY    61  57  87 E5        30.15F
CHERRY POINT   CLOUDY    61  58  90 E6        30.14F
BEAUFORT       CLOUDY    62  59  90 E6        30.12F
JACKSONVILLE   CLOUDY    61  57  87 E8        30.12F
WILMINGTON     CLOUDY    65  61  87 E8        30.11F
$$





USA.gov is the U.S. government's official web portal to all federal, state and local government web resources and services.